Regional Weather Roundup
Issued by NWS Mt. Holly, NJ

Home | Current Version | Previous Version | Text Only | Print | Product List | Glossary On
Versions: 1 2 3 4 5 6 7 8 9 10 11 12 13 14 15 16 17 18 19 20 21 22 23 24 25 26 27 28 29 30 31 32 33 34 35 36 37 38 39 40 41 42 43 44 45 46 47 48 49 50
000
ASUS41 KPHI 180710
RWRPHI

REGIONAL WEATHER ROUNDUP
NATIONAL WEATHER SERVICE MOUNT HOLLY NJ
200 AM EST THU DEC 18 2014

NOTE:  "FAIR" INDICATES FEW OR NO CLOUDS BELOW 12,000 FEET WITH NO
SIGNIFICANT WEATHER AND/OR OBSTRUCTIONS TO VISIBILITY.

 * = STATION DOES NOT REPORT PRECIPITATION (E.G. RAIN, SNOW, ETC.)
        OR FOG.

NJZ015>026-180800-
SOUTHERN NEW JERSEY

CITY           SKY/WX    TMP DP  RH WIND       PRES   REMARKS
POMONA         CLEAR     35  23  61 W13       29.98R WCI  26
RIO GRANDE*    CLEAR     37  23  56 NW12G20   30.00R WCI  30
MILLVILLE      CLEAR     35  23  61 W9        30.00R WCI  28
WRIGHTSTOWN    CLOUDY    36  23  58 NW12G22   29.94R WCI  28
MOUNT HOLLY    MOCLDY    37  22  54 W12G23    29.98R WCI  29
TRENTON        CLOUDY    37  22  54 NW9G22    29.95R WCI  30

$$
NJZ001>014-180800-
NORTHERN NEW JERSEY

CITY           SKY/WX    TMP DP  RH WIND       PRES   REMARKS
SUSSEX         CLOUDY    37  25  61 VRB3      29.90R
ANDOVER*         N/A     37  25  61 VRB5      29.91R WCI  33
MORRISTOWN       N/A     39  27  60 W7        29.91R WCI  34
NEWARK         CLOUDY    39  25  57 W16       29.91R WCI  30
TETERBORO      CLOUDY    41  27  57 NW13      29.89R
CALDWELL       CLOUDY    39  25  57 NW7G20    29.90R WCI  34
SOMERVILLE     CLOUDY    38  23  55 W8        29.92R WCI  32
ALLAIRE*       CLOUDY    36  21  55 W16       29.91F WCI  26
TOMS RIVER*    CLEAR     36  23  60 W15G22    29.95R WCI  26

$$
PAZ043-044-047-054-055-060>062-066>071-180800-
EASTERN PENNSYLVANIA

CITY           SKY/WX    TMP DP  RH WIND       PRES   REMARKS
PHILADELPHIA   PTCLDY    37  23  56 W15       30.00R WCI  28
NORTH PHILA    CLOUDY    38  20  48 W12G25    29.99R WCI  30
BLUE BELL      MOCLDY    36  25  64 W10G18    29.97R WCI  28
DOYLESTOWN     CLOUDY    35  23  61 W14G24    29.95R WCI  26
QUAKERTOWN*    CLOUDY    36  23  60 NW12G21   29.97R WCI  27
POTTSTOWN      CLOUDY    34  21  59 W10G21    30.00R WCI  26
LANCASTER      CLOUDY    35  18  49 NW23G29   30.03R WCI  23
COATESVILLE    CLOUDY    36  23  60 NW23G35   30.00R WCI  24
READING        CLOUDY    35  21  56 W16G29    29.99R WCI  25
ALLENTOWN      CLOUDY    37  22  54 W17G25    29.95R WCI  27
MOUNT POCONO   LGT SNOW  29  24  82 W18G28    29.86R WCI  16
HAZLETON       CLOUDY    32  23  69 W13G21    29.95R WCI  22
WILKES BARRE   CLOUDY    33  26  75 W8        29.94S WCI  26

$$
DEZALL-MDZ008-012-015-019-020-180800-
DELAWARE AND EASTERN MARYLAND

CITY           SKY/WX    TMP DP  RH WIND       PRES   REMARKS
WILMINGTON     CLEAR     37  21  52 NW21G32   30.01S WCI  26
DOVER          CLOUDY    37  24  60 W12       30.00R WCI  29
GEORGETOWN     CLEAR     37  24  59 NW6       30.04R WCI  32
EASTON         CLEAR     39  26  60 NW16G25   30.09R WCI  30
PATUXENT       CLEAR     38  24  57 NW13      30.07R WCI  30
OCEAN CITY     CLEAR     36  25  64 NW7       30.04R WCI  30
WALLOPS ISLAND CLEAR     35  28  75 NW8       30.06R WCI  29
SALISBURY      CLEAR     39  25  57 W8        30.05R WCI  33

$$
PAZ001-021-NYZ056-072-MDZ011-DCZ001-180800-
OTHER NEARBY LOCATIONS

CITY           SKY/WX    TMP DP  RH WIND       PRES   REMARKS
HARRISBURG     MOCLDY    35  20  54 NW17G24   30.05R WCI  25
STATE COLLEGE  CLOUDY    30  20  65 W15G22    30.03S WCI  19
WILLIAMSPORT   CLOUDY    34  22  61 W13       30.00R WCI  25
BINGHAMTON     CLOUDY    29  24  82 W23G31    29.89R WCI  15
NEW YORK CITY  CLOUDY    41  25  53 W9        29.91R
BALTIMORE      PTCLDY    35  20  54 NW14G22   30.05S WCI  26
WASHINGTON DC  MOCLDY    40  21  46 W7        30.10R

$$


USA.gov is the U.S. government's official web portal to all federal, state and local government web resources and services.